Time,TemperatureF,DewpointF,PressureIn,WindDirection,WindDirectionDegrees,WindSpeedMPH,WindSpeedGustMPH,Humidity,HourlyPrecipIn,Conditions,Clouds,dailyrainin,SolarRadiationWatts/m^2,SoftwareType,DateUTC
2013-07-22 00:07:00,55.4,52.0,29.85,West,276,1.0,2.0,89,0.00,,,0.00,0,weatherlink.com 1.10,2013-07-22 07:07:00,
2013-07-22 00:22:00,55.2,52.0,29.86,WNW,282,0.0,2.0,90,0.00,,,0.00,0,weatherlink.com 1.10,2013-07-22 07:22:00,
2013-07-22 00:37:00,55.0,52.0,29.86,West,271,3.0,3.0,90,0.00,,,0.00,0,weatherlink.com 1.10,2013-07-22 07:37:00,
2013-07-22 00:52:00,54.7,52.0,29.85,West,265,3.0,3.0,91,0.00,,,0.00,0,weatherlink.com 1.10,2013-07-22 07:52:00,
2013-07-22 01:07:00,54.6,52.0,29.86,West,271,0.0,3.0,92,0.00,,,0.00,0,weatherlink.com 1.10,2013-07-22 08:07:00,
2013-07-22 01:22:00,54.6,52.0,29.86,West,265,1.0,3.0,92,0.00,,,0.00,0,weatherlink.com 1.10,2013-07-22 08:22:00,
2013-07-22 01:37:00,54.5,53.0,29.86,West,266,0.0,2.0,93,0.00,,,0.00,0,weatherlink.com 1.10,2013-07-22 08:37:00,
2013-07-22 01:53:00,54.4,53.0,29.87,West,266,1.0,2.0,93,0.00,,,0.00,0,weatherlink.com 1.10,2013-07-22 08:53:00,
2013-07-22 02:08:00,54.4,53.0,29.86,West,277,2.0,4.0,93,0.00,,,0.00,0,weatherlink.com 1.10,2013-07-22 09:08:00,
2013-07-22 02:23:00,54.4,53.0,29.86,West,267,0.0,3.0,94,0.00,,,0.00,0,weatherlink.com 1.10,2013-07-22 09:23:00,
2013-07-22 02:38:00,54.6,53.0,29.86,West,267,1.0,1.0,94,0.00,,,0.00,0,weatherlink.com 1.10,2013-07-22 09:38:00,
2013-07-22 02:53:00,54.6,53.0,29.86,West,275,3.0,3.0,94,0.00,,,0.00,0,weatherlink.com 1.10,2013-07-22 09:53:00,
2013-07-22 03:08:00,54.7,53.0,29.86,West,267,1.0,3.0,94,0.00,,,0.00,0,weatherlink.com 1.10,2013-07-22 10:08:00,
2013-07-22 03:23:00,55.0,54.0,29.85,West,273,2.0,4.0,95,0.00,,,0.00,0,weatherlink.com 1.10,2013-07-22 10:23:00,
2013-07-22 03:38:00,55.1,54.0,29.86,West,278,2.0,4.0,95,0.00,,,0.00,0,weatherlink.com 1.10,2013-07-22 10:38:00,
2013-07-22 03:53:00,55.2,54.0,29.86,West,273,0.0,5.0,95,0.00,,,0.00,0,weatherlink.com 1.10,2013-07-22 10:53:00,
2013-07-22 04:08:00,55.3,54.0,29.86,WNW,283,0.0,4.0,95,0.00,,,0.00,0,weatherlink.com 1.10,2013-07-22 11:08:00,
2013-07-22 04:23:00,55.3,54.0,29.86,West,271,0.0,4.0,95,0.00,,,0.00,0,weatherlink.com 1.10,2013-07-22 11:23:00,
2013-07-22 04:38:00,55.3,54.0,29.86,West,274,1.0,5.0,95,0.00,,,0.00,0,weatherlink.com 1.10,2013-07-22 11:38:00,
2013-07-22 04:53:00,55.3,54.0,29.87,West,279,3.0,7.0,95,0.00,,,0.00,0,weatherlink.com 1.10,2013-07-22 11:53:00,
2013-07-22 05:08:00,55.4,54.0,29.87,WNW,283,0.0,3.0,95,0.00,,,0.00,0,weatherlink.com 1.10,2013-07-22 12:08:00,
2013-07-22 05:23:00,55.5,54.0,29.88,WNW,282,0.0,2.0,96,0.00,,,0.00,0,weatherlink.com 1.10,2013-07-22 12:23:00,
2013-07-22 05:38:00,55.7,54.0,29.88,West,281,0.0,2.0,95,0.00,,,0.00,0,weatherlink.com 1.10,2013-07-22 12:38:00,
2013-07-22 05:53:00,55.7,55.0,29.89,West,281,0.0,1.0,96,0.00,,,0.00,0,weatherlink.com 1.10,2013-07-22 12:53:00,
2013-07-22 06:08:00,55.8,54.0,29.90,West,281,0.0,1.0,95,0.00,,,0.00,0,weatherlink.com 1.10,2013-07-22 13:08:00,
2013-07-22 06:23:00,55.9,55.0,29.90,West,281,0.0,0.0,96,0.00,,,0.00,14,weatherlink.com 1.10,2013-07-22 13:23:00,
2013-07-22 06:38:00,56.1,55.0,29.90,West,281,0.0,1.0,96,0.00,,,0.00,23,weatherlink.com 1.10,2013-07-22 13:38:00,
2013-07-22 06:53:00,56.3,55.0,29.91,West,281,0.0,0.0,95,0.00,,,0.00,28,weatherlink.com 1.10,2013-07-22 13:53:00,
2013-07-22 07:08:00,56.5,55.0,29.91,West,281,0.0,0.0,95,0.00,,,0.00,37,weatherlink.com 1.10,2013-07-22 14:08:00,
2013-07-22 07:23:00,57.3,56.0,29.92,WNW,284,0.0,2.0,95,0.00,,,0.00,47,weatherlink.com 1.10,2013-07-22 14:23:00,
2013-07-22 07:38:00,57.6,56.0,29.91,NNE,26,0.0,2.0,94,0.00,,,0.00,65,weatherlink.com 1.10,2013-07-22 14:38:00,
2013-07-22 07:53:00,59.2,57.0,29.91,NNW,339,0.0,2.0,92,0.00,,,0.00,213,weatherlink.com 1.10,2013-07-22 14:53:00,
2013-07-22 08:08:00,60.7,57.0,29.91,NW,315,0.0,1.0,88,0.00,,,0.00,167,weatherlink.com 1.10,2013-07-22 15:08:00,
2013-07-22 08:23:00,61.0,57.0,29.91,NW,315,0.0,1.0,86,0.00,,,0.00,207,weatherlink.com 1.10,2013-07-22 15:23:00,
2013-07-22 08:38:00,62.3,57.0,29.91,NW,315,0.0,1.0,84,0.00,,,0.00,250,weatherlink.com 1.10,2013-07-22 15:38:00,
2013-07-22 08:53:00,62.6,57.0,29.91,NW,315,0.0,2.0,83,0.00,,,0.00,253,weatherlink.com 1.10,2013-07-22 15:53:00,
2013-07-22 09:08:00,63.9,58.0,29.91,NW,307,0.0,2.0,80,0.00,,,0.00,318,weatherlink.com 1.10,2013-07-22 16:08:00,
2013-07-22 09:23:00,65.4,58.0,29.91,WNW,282,2.0,3.0,77,0.00,,,0.00,388,weatherlink.com 1.10,2013-07-22 16:23:00,
2013-07-22 09:38:00,66.0,58.0,29.91,West,277,1.0,3.0,76,0.00,,,0.00,385,weatherlink.com 1.10,2013-07-22 16:38:00,
2013-07-22 09:53:00,66.1,58.0,29.91,West,280,0.0,4.0,76,0.00,,,0.00,526,weatherlink.com 1.10,2013-07-22 16:53:00,
2013-07-22 10:09:00,68.3,59.0,29.91,West,281,1.0,3.0,72,0.00,,,0.00,670,weatherlink.com 1.10,2013-07-22 17:09:00,
2013-07-22 10:24:00,68.9,60.0,29.91,West,281,1.0,3.0,72,0.00,,,0.00,571,weatherlink.com 1.10,2013-07-22 17:24:00,
2013-07-22 10:39:00,68.8,59.0,29.92,West,276,2.0,4.0,70,0.00,,,0.00,494,weatherlink.com 1.10,2013-07-22 17:39:00,
2013-07-22 10:54:00,68.6,58.0,29.92,West,280,1.0,4.0,69,0.00,,,0.00,392,weatherlink.com 1.10,2013-07-22 17:54:00,
2013-07-22 11:09:00,71.7,60.0,29.92,WNW,286,1.0,4.0,66,0.00,,,0.00,643,weatherlink.com 1.10,2013-07-22 18:09:00,
2013-07-22 11:24:00,70.6,59.0,29.91,West,269,2.0,4.0,67,0.00,,,0.00,545,weatherlink.com 1.10,2013-07-22 18:24:00,
2013-07-22 11:54:00,72.2,59.0,29.91,West,271,3.0,4.0,64,0.00,,,0.00,608,weatherlink.com 1.10,2013-07-22 18:54:00,
2013-07-22 12:39:00,74.3,59.0,29.91,West,279,2.0,4.0,59,0.00,,,0.00,378,weatherlink.com 1.10,2013-07-22 19:39:00,
2013-07-22 12:54:00,76.6,59.0,29.91,West,279,2.0,3.0,55,0.00,,,0.00,640,weatherlink.com 1.10,2013-07-22 19:54:00,
2013-07-22 13:09:00,78.9,59.0,29.91,West,273,0.0,3.0,51,0.00,,,0.00,737,weatherlink.com 1.10,2013-07-22 20:09:00,
2013-07-22 13:24:00,79.8,59.0,29.91,West,275,3.0,5.0,49,0.00,,,0.00,673,weatherlink.com 1.10,2013-07-22 20:24:00,
2013-07-22 13:39:00,79.2,58.0,29.91,West,272,1.0,5.0,49,0.00,,,0.00,292,weatherlink.com 1.10,2013-07-22 20:39:00,
2013-07-22 13:54:00,78.8,58.0,29.90,West,271,0.0,4.0,49,0.00,,,0.00,285,weatherlink.com 1.10,2013-07-22 20:54:00,
2013-07-22 14:09:00,78.2,58.0,29.90,West,261,0.0,3.0,50,0.00,,,0.00,255,weatherlink.com 1.10,2013-07-22 21:09:00,
2013-07-22 14:24:00,78.2,59.0,29.90,West,261,0.0,3.0,51,0.00,,,0.00,255,weatherlink.com 1.10,2013-07-22 21:24:00,
2013-07-22 14:39:00,77.4,57.0,29.90,West,273,0.0,4.0,50,0.00,,,0.00,244,weatherlink.com 1.10,2013-07-22 21:39:00,
2013-07-22 14:54:00,76.6,58.0,29.91,West,278,2.0,3.0,53,0.00,,,0.00,243,weatherlink.com 1.10,2013-07-22 21:54:00,
2013-07-22 15:09:00,75.8,57.0,29.90,WNW,286,0.0,4.0,53,0.00,,,0.00,221,weatherlink.com 1.10,2013-07-22 22:09:00,
2013-07-22 15:24:00,74.4,57.0,29.90,WNW,282,1.0,3.0,55,0.00,,,0.00,213,weatherlink.com 1.10,2013-07-22 22:24:00,
2013-07-22 15:39:00,74.2,57.0,29.90,West,272,2.0,5.0,55,0.00,,,0.00,202,weatherlink.com 1.10,2013-07-22 22:39:00,
2013-07-22 15:54:00,73.7,57.0,29.89,West,270,2.0,5.0,56,0.00,,,0.00,211,weatherlink.com 1.10,2013-07-22 22:54:00,
2013-07-22 16:09:00,73.8,57.0,29.89,West,274,3.0,5.0,57,0.00,,,0.00,130,weatherlink.com 1.10,2013-07-22 23:09:00,
2013-07-22 16:24:00,71.2,57.0,29.89,West,273,2.0,3.0,61,0.00,,,0.00,76,weatherlink.com 1.10,2013-07-22 23:24:00,
2013-07-22 16:39:00,70.2,57.0,29.90,West,273,0.0,2.0,63,0.00,,,0.00,69,weatherlink.com 1.10,2013-07-22 23:39:00,
2013-07-22 16:54:00,71.0,56.0,29.91,WSW,257,0.0,2.0,59,0.00,,,0.00,83,weatherlink.com 1.10,2013-07-22 23:54:00,
2013-07-22 17:09:00,70.9,56.0,29.90,WNW,282,2.0,4.0,59,0.00,,,0.00,76,weatherlink.com 1.10,2013-07-23 00:09:00,
2013-07-22 17:24:00,69.6,56.0,29.90,West,272,1.0,4.0,62,0.00,,,0.00,79,weatherlink.com 1.10,2013-07-23 00:24:00,
2013-07-22 17:39:00,70.3,55.0,29.90,West,280,1.0,2.0,59,0.00,,,0.00,83,weatherlink.com 1.10,2013-07-23 00:39:00,
2013-07-22 17:54:00,70.4,54.0,29.91,West,277,0.0,2.0,57,0.00,,,0.00,51,weatherlink.com 1.10,2013-07-23 00:54:00,
2013-07-22 18:09:00,69.6,54.0,29.91,West,276,1.0,3.0,59,0.00,,,0.00,42,weatherlink.com 1.10,2013-07-23 01:09:00,
2013-07-22 18:24:00,69.2,55.0,29.91,West,275,0.0,3.0,60,0.00,,,0.00,44,weatherlink.com 1.10,2013-07-23 01:24:00,
2013-07-22 18:39:00,69.0,55.0,29.92,West,275,2.0,3.0,62,0.00,,,0.00,39,weatherlink.com 1.10,2013-07-23 01:39:00,
2013-07-22 18:54:00,67.5,56.0,29.92,West,276,3.0,5.0,67,0.00,,,0.00,35,weatherlink.com 1.10,2013-07-23 01:54:00,
2013-07-22 19:09:00,66.8,56.0,29.91,West,279,3.0,3.0,68,0.00,,,0.00,23,weatherlink.com 1.10,2013-07-23 02:09:00,
2013-07-22 19:24:00,67.3,56.0,29.92,West,279,0.0,1.0,67,0.00,,,0.00,21,weatherlink.com 1.10,2013-07-23 02:24:00,
2013-07-22 19:39:00,67.9,56.0,29.91,West,278,2.0,2.0,66,0.00,,,0.00,14,weatherlink.com 1.10,2013-07-23 02:39:00,
2013-07-22 19:54:00,66.8,55.0,29.91,West,277,2.0,3.0,67,0.00,,,0.00,7,weatherlink.com 1.10,2013-07-23 02:54:00,
2013-07-22 20:09:00,67.5,54.0,29.90,WNW,288,1.0,5.0,62,0.00,,,0.00,0,weatherlink.com 1.10,2013-07-23 03:09:00,
2013-07-22 20:24:00,67.8,53.0,29.90,WSW,254,0.0,2.0,60,0.00,,,0.00,0,weatherlink.com 1.10,2013-07-23 03:24:00,
2013-07-22 20:39:00,67.4,54.0,29.91,West,281,0.0,3.0,63,0.00,,,0.00,0,weatherlink.com 1.10,2013-07-23 03:39:00,
2013-07-22 20:54:00,65.4,55.0,29.91,West,281,0.0,2.0,69,0.00,,,0.00,0,weatherlink.com 1.10,2013-07-23 03:54:00,
2013-07-22 21:09:00,64.6,55.0,29.92,West,281,0.0,2.0,70,0.00,,,0.00,0,weatherlink.com 1.10,2013-07-23 04:09:00,
2013-07-22 21:24:00,64.3,55.0,29.93,West,281,0.0,1.0,71,0.00,,,0.00,0,weatherlink.com 1.10,2013-07-23 04:24:00,
2013-07-22 21:39:00,63.2,55.0,29.93,West,265,2.0,4.0,74,0.00,,,0.00,0,weatherlink.com 1.10,2013-07-23 04:39:00,
2013-07-22 21:54:00,61.2,55.0,29.94,West,263,0.0,2.0,80,0.00,,,0.00,0,weatherlink.com 1.10,2013-07-23 04:54:00,
2013-07-22 22:09:00,61.1,55.0,29.94,West,263,1.0,2.0,79,0.00,,,0.00,0,weatherlink.com 1.10,2013-07-23 05:09:00,
2013-07-22 22:24:00,60.9,55.0,29.94,West,263,1.0,2.0,81,0.00,,,0.00,0,weatherlink.com 1.10,2013-07-23 05:24:00,
2013-07-22 22:39:00,60.4,55.0,29.94,West,267,2.0,3.0,82,0.00,,,0.00,0,weatherlink.com 1.10,2013-07-23 05:39:00,
2013-07-22 22:54:00,60.2,55.0,29.93,West,271,2.0,3.0,83,0.00,,,0.00,0,weatherlink.com 1.10,2013-07-23 05:54:00,
2013-07-22 23:09:00,60.3,54.0,29.92,WSW,256,2.0,4.0,81,0.00,,,0.00,0,weatherlink.com 1.10,2013-07-23 06:09:00,
2013-07-22 23:24:00,60.4,55.0,29.93,WSW,256,0.0,2.0,81,0.00,,,0.00,0,weatherlink.com 1.10,2013-07-23 06:24:00,
2013-07-22 23:39:00,60.7,55.0,29.93,WSW,256,1.0,2.0,80,0.00,,,0.00,0,weatherlink.com 1.10,2013-07-23 06:39:00,
2013-07-22 23:54:00,61.3,55.0,29.92,WSW,256,1.0,2.0,79,0.00,,,0.00,0,weatherlink.com 1.10,2013-07-23 06:54:00,